Regional Weather Roundup
Issued by NWS

Home | Current Version | Previous Version | Text Only | Print | Product List | Glossary On
Versions: 1 2 3 4 5 6 7 8 9 10 11 12 13 14 15 16 17 18 19 20 21 22 23 24 25 26 27 28 29 30 31 32 33 34 35 36 37 38 39 40 41 42 43 44 45 46 47 48 49 50
000
ASCA44 KEWX 062120
RWRMX

LATIN AMERICA AND CARIBBEAN REGIONAL WEATHER ROUNDUP
NATIONAL WEATHER SERVICE AUSTIN/SAN ANTONIO TX
300 PM CST FRI MAR 06 2015

NOTE: "FAIR" INDICATED FEW OR NO CLOUDS BELOW 12,000 FEET WITH NO
SIGNIFICANT WEATHER AND/OR OBSTRUCTIONS TO VISIBILITY.

BAJA CALIFORNIA

CITY           SKY/WX    TMP DP  RH WIND       PRES   REMARKS
LORETO         SUNNY     73  57  56 NE15      29.93F
LA PAZ         SUNNY     77  50  38 N6        29.97
MEXICALI       SUNNY     79  52  38 N23       30.05
S.J. DEL CABO  SUNNY     81  46  30 SE16      29.96F
TIJUANA        SUNNY     81  27  13 SE3       30.05

NORTHWESTERN MEXICO

CITY           SKY/WX    TMP DP  RH WIND       PRES   REMARKS
CULIACAN       SUNNY     86  63  45 S6        29.92
DURANGO        MOSUNNY   68  37  32 E6        30.23F
GUAYMAS        SUNNY     75  57  53 S12       29.88
HERMOSILLO     SUNNY     86  41  20 SE6       29.94
CD. JUAREZ     MOSUNNY   59  28  31 E13       30.24
LOS MOCHIS     SUNNY     82  54  36 W9        29.91F
OBREGON        SUNNY     82  45  26 SW6       29.88

NORTHEASTERN MEXICO

CITY           SKY/WX    TMP DP  RH WIND       PRES   REMARKS
CHIHUAHUA      PTSUNNY   63  32  31 E12       30.26
MATAMOROS      CLOUDY    50  41  71 NW12      30.55  WCI  46
MONCLOVA         N/A    N/A N/A N/A MISG        N/A
MONTERREY      PTSUNNY   50  30  46 S7        30.44F WCI  47
NUEVO LAREDO   CLOUDY    52  27  37 CALM      30.52
PIEDRAS NEGRAS PTSUNNY   52  27  37 SE7       30.50F
REYNOSA        CLOUDY    46  28  49 N9        30.50  WCI  42
SALTILLO       PTSUNNY   45  37  76 CALM      30.40S FOG
TORREON        PTSUNNY   59  34  38 CALM      30.33F
CD. VICTORIA   CLOUDY    54  34  47 N8        30.46

WESTERN MEXICO

CITY           SKY/WX    TMP DP  RH WIND       PRES   REMARKS
AGUASCALIENTES PTSUNNY   73  37  27 W5        30.25
COLIMA         PTSUNNY   82  66  57 SW12      29.99F
DEL BAJIO      PTSUNNY   73  46  38 E5        30.29F
GUADALAJARA    MOSUNNY   79  45  29 CALM      30.15
MAZATLAN       SUNNY     79  59  50 SW10      29.90F
P. VALLARTA    SUNNY     81  68  65 SW13      29.90F
URUAPAN        PTSUNNY   77  55  47 S12       30.14F
ZACATECAS      PTSUNNY   70  43  37 NE12G23   30.28F

CENTRAL MEXICO

CITY           SKY/WX    TMP DP  RH WIND       PRES   REMARKS
CUERNAVACA     SUNNY     82  43  24 S8        30.11F
MEXICO CITY    MOSUNNY   73  43  33 E10       30.28F
MORELIA        PTSUNNY   79  50  36 N7        30.19
POZA RICA      CLOUDY    57  46  67 NW12      30.44F
PUEBLA         SUNNY     72  39  30 S14       30.31F
QUERETARO      PTSUNNY   68  43  40 NE17      30.31F
S. LUIS POTOSI PTSUNNY   61  37  41 SE6       30.33F
TAMPICO        CLOUDY    57  43  58 N7        30.44F
TOLUCA         PTSUNNY   72  32  23 E7        30.33F

SOUTHERN MEXICO

CITY           SKY/WX    TMP DP  RH WIND       PRES   REMARKS
ACAPULCO       SUNNY     84  75  74 W8        29.84F HX  92
B. DE HUATULCO SUNNY     90  72  55 CALM      29.85  HX  96
OAXACA         PTSUNNY   79  43  27 N8        30.19F
P. ESCONDIDO   MOSUNNY   81  73  78 S15       30.00F
VERACRUZ       CLOUDY    63  52  67 N12G23    30.27F
ZIHUATANEJO    SUNNY     86  73  66 SW12      29.87F HX  93

YUCATAN PENINSULA

CITY           SKY/WX    TMP DP  RH WIND       PRES   REMARKS
CAMPECHE       PTSUNNY   81  75  83 NW21      30.01F
CANCUN         MOSUNNY   82  72  69 NE8       30.09F
CHETUMAL       MOSUNNY   86  77  74 SE9       30.04F HX  97
CD. DEL CARMEN CLOUDY    73  68  83 SW17      30.06  HAZE
COZUMEL        MOSUNNY   81  72  74 E14       30.08F
MERIDA         LGT RAIN  81  72  74 NE10      30.06F
MINATITLAN     CLOUDY    63  63 100 CALM      30.16
TAPACHULA      SUNNY     88  72  58 SW12      29.83F HX  94
TUX. GUTIERREZ PTSUNNY   70  52  52 NW28G40   30.10F
VILLAHERMOSA   DRIZZLE   64  64 100 SW9       30.17F FOG

CENTRAL AMERICA

CITY           SKY/WX    TMP DP  RH WIND       PRES   REMARKS
BELIZE CITY    MOSUNNY   84  73  70 E13       30.04F HX  91
MANAGUA        MOCLDY    86  68  54 NE16      29.83

CARIBBEAN

CITY           SKY/WX    TMP DP  RH WIND       PRES   REMARKS
ARUBA          MOSUNNY   84  70  61 E24       29.89S
CURACAO        MOSUNNY   82  68  61 E16       29.94S
KINGSTON       MOSUNNY   84  72  65 SE25      29.94S
NASSAU         MOSUNNY   84  70  61 S7        30.14S
SAN JUAN       MOSUNNY   81  70  69 E17       30.06F
SANTO DOMINGO  MOSUNNY   84  73  70 SE14      30.00F HX  91
ST. CROIX      PTSUNNY   81  66  61 E17       30.05
ST. KITTS      MOSUNNY   81  66  61 NE21      30.03S
ST. MAARTEN    MOSUNNY   79  66  65 E18       30.06S

$$



USA.gov is the U.S. government's official web portal to all federal, state and local government web resources and services.